| time (UTC) | temp F | wind direction | speed MPH | gust MPH | rain 1hr in | rain 24hr in | rain mn in | humidity % | barometer mb |
| 20260508204524 | 51 | 279 | 3.0 | 8.0 | 0.00 | 0.02 | 0.01 | 75 | 1001.9 |
| 20260508203027 | 52 | 255 | 4.0 | 9.0 | 0.00 | 0.02 | 0.01 | 74 | 1001.5 |
| 20260508201523 | 53 | 323 | 3.0 | 8.0 | 0.00 | 0.02 | 0.01 | 71 | 1001.4 |
| 20260508200026 | 54 | 286 | 3.0 | 9.0 | 0.00 | 0.02 | 0.01 | 70 | 1000.9 |
| 20260508194522 | 55 | 315 | 4.0 | 8.0 | 0.00 | 0.15 | 0.01 | 68 | 1000.8 |
| 20260508193024 | 57 | 281 | 3.0 | 8.0 | 0.00 | 0.15 | 0.01 | 67 | 1000.4 |
| 20260508191533 | 58 | 5 | 3.0 | 8.0 | 0.00 | 0.15 | 0.01 | 64 | 1000.2 |
| 20260508190027 | 59 | 325 | 1.0 | 8.0 | 0.00 | 0.15 | 0.01 | 63 | 1000.0 |
| 20260508184524 | 61 | 317 | 3.0 | 10.0 | 0.00 | 0.46 | 0.01 | 63 | 999.7 |
| 20260508183017 | 60 | 360 | 2.0 | 9.0 | 0.00 | 0.46 | 0.01 | 68 | 999.8 |
| 20260508181517 | 61 | 254 | 7.0 | 15.0 | 0.00 | 0.46 | 0.01 | 65 | 999.7 |
| 20260508180015 | 62 | 291 | 5.0 | 10.0 | 0.00 | 0.46 | 0.01 | 72 | 999.5 |
| 20260508174514 | 58 | 268 | 4.0 | 10.0 | 0.00 | 0.88 | 0.01 | 71 | 999.7 |
| 20260508173010 | 58 | 126 | 2.0 | 7.0 | 0.00 | 0.88 | 0.01 | 68 | 999.7 |
| 20260508171508 | 59 | 117 | 2.0 | 6.0 | 0.00 | 0.88 | 0.01 | 69 | 999.8 |
| 20260508170010 | 58 | 84 | 1.0 | 2.0 | 0.00 | 0.88 | 0.01 | 69 | 1000.0 |
| 20260508164506 | 58 | 84 | 2.0 | 5.0 | 0.00 | 0.90 | 0.01 | 68 | 1000.2 |
| 20260508163003 | 58 | 264 | 1.0 | 4.0 | 0.00 | 0.90 | 0.01 | 68 | 1000.1 |
| 20260508161501 | 57 | 49 | 1.0 | 3.0 | 0.00 | 0.90 | 0.01 | 70 | 1000.2 |
| 20260508160100 | 57 | 81 | 7.0 | 9.0 | 0.00 | 0.90 | 0.01 | 71 | 1000.3 |
| 20260508154605 | 57 | 119 | 3.0 | 7.0 | 0.00 | 0.90 | 0.01 | 70 | 1000.2 |
| 20260508153058 | 57 | 147 | 4.0 | 10.0 | 0.00 | 0.90 | 0.01 | 74 | 1000.4 |
| 20260508151557 | 57 | 127 | 5.0 | 9.0 | 0.00 | 0.90 | 0.01 | 73 | 1000.4 |
| 20260508150056 | 56 | 128 | 2.0 | 9.0 | 0.00 | 0.90 | 0.01 | 74 | 1000.4 |
| 20260508144556 | 57 | 133 | 5.0 | 8.0 | 0.00 | 0.90 | 0.01 | 70 | 1000.6 |
| 20260508143104 | 58 | 88 | 5.0 | 10.0 | 0.00 | 0.90 | 0.01 | 65 | 1000.7 |
| 20260508141551 | 57 | 76 | 6.0 | 10.0 | 0.00 | 0.90 | 0.01 | 67 | 1000.8 |
| 20260508140059 | 56 | 69 | 3.0 | 10.0 | 0.00 | 0.90 | 0.01 | 68 | 1000.9 |
| 20260508134549 | 56 | 66 | 7.0 | 11.0 | 0.00 | 0.90 | 0.01 | 69 | 1001.2 |
| 20260508133046 | 56 | 32 | 3.0 | 9.0 | 0.00 | 0.90 | 0.01 | 73 | 1001.3 |
| 20260508131545 | 55 | 15 | 6.0 | 10.0 | 0.00 | 0.90 | 0.01 | 75 | 1001.2 |
| 20260508130041 | 55 | 82 | 6.0 | 10.0 | 0.00 | 0.90 | 0.01 | 80 | 1001.3 |
| 20260508124538 | 53 | 68 | 3.0 | 9.0 | 0.00 | 0.90 | 0.01 | 81 | 1001.3 |
| 20260508123137 | 53 | 36 | 4.0 | 9.0 | 0.00 | 0.90 | 0.01 | 84 | 1001.2 |
| 20260508121540 | 53 | 67 | 6.0 | 10.0 | 0.00 | 0.90 | 0.01 | 88 | 1001.2 |
| 20260508120038 | 52 | 51 | 1.0 | 5.0 | 0.00 | 0.90 | 0.01 | 92 | 1001.2 |
| 20260508114528 | 51 | 86 | 2.0 | 6.0 | 0.00 | 0.90 | 0.01 | 95 | 1001.5 |
| 20260508113026 | 50 | 348 | 0.0 | 3.0 | 0.00 | 0.90 | 0.01 | 100 | 1001.5 |
| 20260508111529 | 49 | 5 | 0.0 | 3.0 | 0.01 | 0.90 | 0.01 | 100 | 1001.5 |
| 20260508110023 | 47 | 355 | 0.0 | 3.0 | 0.01 | 0.90 | 0.01 | 100 | 1001.5 |
| 20260508104523 | 46 | 225 | 0.0 | 1.0 | 0.01 | 0.90 | 0.01 | 100 | 1001.5 |
| 20260508103025 | 43 | 225 | 0.0 | 0.0 | 0.01 | 0.90 | 0.01 | 100 | 1001.8 |
| 20260508101522 | 41 | 225 | 0.0 | 0.0 | 0.00 | 0.89 | 0.00 | 100 | 1001.7 |
| 20260508100022 | 41 | 225 | 0.0 | 0.0 | 0.00 | 0.89 | 0.00 | 100 | 1001.4 |
| 20260508094520 | 41 | 225 | 0.0 | 3.0 | 0.00 | 0.89 | 0.00 | 100 | 1001.6 |
| 20260508093019 | 41 | 224 | 0.0 | 2.0 | 0.00 | 0.89 | 0.00 | 100 | 1001.3 |
| 20260508091521 | 41 | 224 | 0.0 | 2.0 | 0.00 | 0.89 | 0.00 | 100 | 1001.2 |
| 20260508090014 | 42 | 228 | 0.0 | 3.0 | 0.00 | 0.89 | 0.00 | 100 | 1000.9 |
| 20260508084514 | 42 | 228 | 2.0 | 3.0 | 0.00 | 0.89 | 0.00 | 100 | 1001.2 |
| 20260508083012 | 42 | 228 | 2.0 | 4.0 | 0.00 | 0.89 | 0.00 | 100 | 1001.3 |
| 20260508081510 | 42 | 215 | 1.0 | 3.0 | 0.00 | 0.89 | 0.00 | 100 | 1001.0 |
| 20260508080008 | 43 | 215 | 0.0 | 3.0 | 0.00 | 0.89 | 0.00 | 100 | 1000.9 |
| 20260508074507 | 43 | 215 | 0.0 | 3.0 | 0.00 | 0.89 | 0.00 | 100 | 1000.7 |
| 20260508073002 | 44 | 215 | 0.0 | 2.0 | 0.00 | 0.89 | 0.00 | 100 | 1000.7 |
| 20260508071602 | 44 | 216 | 2.0 | 4.0 | 0.00 | 0.89 | 0.00 | 100 | 1001.0 |
| 20260508070100 | 44 | 215 | 1.0 | 3.0 | 0.00 | 0.89 | 0.00 | 100 | 1001.0 |
| 20260508064558 | 45 | 215 | 0.0 | 4.0 | 0.00 | 0.89 | 0.00 | 100 | 1000.8 |
| 20260508063102 | 45 | 213 | 2.0 | 4.0 | 0.00 | 0.89 | 0.00 | 100 | 1001.1 |
| 20260508061559 | 45 | 213 | 2.0 | 3.0 | 0.00 | 0.89 | 0.00 | 100 | 1000.9 |
| 20260508060053 | 46 | 213 | 0.0 | 3.0 | 0.00 | 0.89 | 0.00 | 100 | 1001.1 |
| 20260508054551 | 46 | 213 | 2.0 | 3.0 | 0.00 | 0.89 | 0.00 | 100 | 1001.2 |
| 20260508053059 | 47 | 212 | 1.0 | 3.0 | 0.00 | 0.89 | 0.00 | 100 | 1001.2 |
| 20260508051550 | 47 | 209 | 0.0 | 3.0 | 0.00 | 0.89 | 0.00 | 100 | 1001.1 |
| 20260508050044 | 47 | 209 | 0.0 | 1.0 | 0.00 | 0.89 | 0.00 | 100 | 1001.0 |
| 20260508044544 | 47 | 209 | 0.0 | 1.0 | 0.00 | 0.89 | 0.00 | 100 | 1000.9 |
| 20260508043049 | 48 | 209 | 1.0 | 2.0 | 0.00 | 0.89 | 0.00 | 100 | 1000.8 |
| 20260508041541 | 48 | 209 | 0.0 | 2.0 | 0.00 | 0.89 | 0.00 | 100 | 1001.1 |
| 20260508040038 | 49 | 209 | 2.0 | 4.0 | 0.00 | 0.89 | 0.00 | 100 | 1001.3 |
| 20260508034539 | 49 | 209 | 1.0 | 3.0 | 0.00 | 0.89 | 0.00 | 100 | 1001.3 |
| 20260508033034 | 50 | 194 | 2.0 | 4.0 | 0.00 | 0.89 | 0.00 | 100 | 1001.6 |
| 20260508031531 | 50 | 194 | 0.0 | 2.0 | 0.00 | 0.89 | 0.00 | 100 | 1001.6 |
| 20260508030029 | 50 | 194 | 0.0 | 2.0 | 0.00 | 0.89 | 0.00 | 100 | 1001.3 |
| 20260508024528 | 51 | 190 | 1.0 | 3.0 | 0.00 | 0.89 | 0.89 | 100 | 1001.5 |
| 20260508023027 | 51 | 146 | 2.0 | 4.0 | 0.00 | 0.89 | 0.89 | 100 | 1001.5 |
| 20260508021528 | 51 | 101 | 0.0 | 0.0 | 0.00 | 0.89 | 0.89 | 100 | 1001.9 |
| 20260508020035 | 51 | 101 | 0.0 | 4.0 | 0.00 | 0.89 | 0.89 | 100 | 1001.6 |
| 20260508014527 | 51 | 304 | 0.0 | 5.0 | 0.00 | 0.89 | 0.89 | 100 | 1001.8 |
| 20260508013026 | 51 | 313 | 0.0 | 2.0 | 0.00 | 0.89 | 0.89 | 100 | 1001.8 |
| 20260508011526 | 52 | 313 | 0.0 | 3.0 | 0.00 | 0.89 | 0.89 | 100 | 1001.6 |
| 20260508010029 | 52 | 329 | 1.0 | 4.0 | 0.00 | 0.89 | 0.89 | 100 | 1001.3 |
| 20260508004525 | 52 | 148 | 2.0 | 3.0 | 0.00 | 0.89 | 0.89 | 100 | 1001.4 |
| 20260508003024 | 52 | 148 | 0.0 | 2.0 | 0.00 | 0.89 | 0.89 | 100 | 1001.4 |
| 20260508001524 | 52 | 148 | 0.0 | 0.0 | 0.00 | 0.89 | 0.89 | 100 | 1001.5 |
| 20260508000023 | 52 | 148 | 0.0 | 3.0 | 0.00 | 0.89 | 0.89 | 100 | 1001.4 |
| 20260507234531 | 52 | 279 | 1.0 | 2.0 | 0.00 | 0.89 | 0.89 | 100 | 1001.4 |
| 20260507233022 | 52 | 279 | 1.0 | 3.0 | 0.00 | 0.89 | 0.89 | 100 | 1001.6 |
| 20260507231521 | 52 | 279 | 0.0 | 0.0 | 0.00 | 0.89 | 0.89 | 100 | 1001.6 |
| 20260507230020 | 52 | 279 | 0.0 | 4.0 | 0.00 | 0.89 | 0.89 | 100 | 1001.7 |
| 20260507224525 | 52 | 284 | 0.0 | 4.0 | 0.00 | 0.89 | 0.89 | 100 | 1001.5 |
| 20260507223020 | 52 | 180 | 2.0 | 3.0 | 0.00 | 0.89 | 0.89 | 99 | 1001.5 |
| 20260507221520 | 52 | 149 | 2.0 | 5.0 | 0.00 | 0.89 | 0.89 | 99 | 1001.3 |
| 20260507220019 | 52 | 206 | 2.0 | 9.0 | 0.00 | 0.89 | 0.89 | 99 | 1001.6 |
| 20260507214523 | 53 | 124 | 2.0 | 9.0 | 0.00 | 0.89 | 0.89 | 99 | 1001.5 |
| 20260507213019 | 53 | 211 | 4.0 | 7.0 | 0.00 | 0.89 | 0.89 | 99 | 1001.6 |
| 20260507211517 | 53 | 204 | 6.0 | 11.0 | 0.00 | 0.89 | 0.89 | 99 | 1001.8 |
| 20260507210017 | 54 | 244 | 4.0 | 7.0 | 0.01 | 0.89 | 0.89 | 99 | 1001.9 |